EW6103 Weather Reports


time (UTC)temp
F
wind
direction
speed
knots
gust
knots
rain 1hr
in
rain 24hr
in
rain mn
in
humidity
%
barometer
mb
20260509182008 56 90 0.9 2.6 0.00 0.00 0.00 63 1018.1
20260509180012 57 90 0.9 3.5 0.00 0.00 0.00 60 1018.0
20260509173010 58 45 1.7 3.5 0.00 0.00 0.00 58 1018.1
20260509172008 58 90 1.7 2.6 0.00 0.00 0.00 58 1018.1
20260509171008 58 315 1.7 3.5 0.00 0.00 0.00 56 1018.0
20260509170010 59 45 0.9 3.5 0.00 0.00 0.00 56 1018.0
20260509165008 59 0 1.7 2.6 0.00 0.00 0.00 54 1018.0
20260509164008 60 0 0.9 2.6 0.00 0.00 0.00 53 1017.9
20260509163014 59 45 0.9 3.5 0.00 0.00 0.00 55 1018.0
20260509162009 59 90 1.7 3.5 0.00 0.00 0.00 54 1018.0
20260509161008 60 45 1.7 3.5 0.00 0.00 0.00 54 1018.0
20260509160012 59 45 2.6 4.3 0.00 0.00 0.00 54 1018.0
20260509154009 60 90 2.6 4.3 0.00 0.00 0.00 55 1018.0
20260509153009 60 0 2.6 4.3 0.00 0.00 0.00 54 1018.0
20260509152009 60 45 1.7 3.5 0.00 0.00 0.00 54 1018.0
20260509151009 61 45 2.6 5.2 0.00 0.00 0.00 55 1017.9
20260509145007 60 45 2.6 4.3 0.00 0.00 0.00 55 1018.1
20260509144009 61 0 2.6 4.3 0.00 0.00 0.00 55 1017.9
20260509143009 61 45 2.6 4.3 0.00 0.00 0.00 54 1018.0
20260509142011 61 45 2.6 5.2 0.00 0.00 0.00 54 1018.0
20260509141007 61 0 2.6 4.3 0.00 0.00 0.00 54 1018.0
20260509135008 64 45 3.5 6.1 0.00 0.00 0.00 53 1018.1
20260509134009 64 45 3.5 6.1 0.00 0.00 0.00 52 1018.1
20260509132009 59 45 1.7 3.5 0.00 0.00 0.00 56 1018.7
20260509131006 59 180 1.7 3.5 0.00 0.00 0.00 57 1018.8
20260509130013 58 0 2.6 4.3 0.00 0.00 0.00 58 1018.8
20260509125007 59 0 2.6 3.5 0.00 0.00 0.00 58 1018.7
20260509124007 59 0 2.6 7.0 0.00 0.00 0.00 57 1018.9
20260509123010 59 45 2.6 3.5 0.00 0.00 0.00 58 1018.9
20260509122008 59 180 1.7 3.5 0.00 0.00 0.00 58 1018.9
20260509121009 59 0 2.6 4.3 0.00 0.00 0.00 59 1018.9
20260509120012 60 45 2.6 5.2 0.00 0.00 0.00 59 1018.8
20260509115008 60 270 1.7 3.5 0.00 0.00 0.00 59 1018.9
20260509114009 60 90 1.7 4.3 0.00 0.00 0.00 56 1018.9
20260509113010 60 180 1.7 3.5 0.00 0.00 0.00 60 1018.9
20260509110013 60 90 1.7 3.5 0.00 0.00 0.00 57 1018.9
20260509105009 61 45 0.9 3.5 0.00 0.00 0.00 56 1019.0
20260509104009 60 180 3.5 6.1 0.00 0.00 0.00 57 1018.9
20260509103010 59 0 2.6 4.3 0.00 0.00 0.00 59 1019.1
20260509102008 58 225 0.9 1.7 0.00 0.00 0.00 69 1019.1
20260509100014 58 225 0.9 1.7 0.00 0.00 0.00 69 1019.1
20260509095008 58 225 0.9 1.7 0.00 0.00 0.00 69 1019.1
20260509094010 58 225 0.9 1.7 0.00 0.00 0.00 69 1019.1
20260509092008 58 225 0.9 1.7 0.00 0.00 0.00 69 1019.1
20260509090009 58 225 0.9 1.7 0.00 0.00 0.00 69 1019.1
20260509085008 58 225 0.9 1.7 0.00 0.00 0.00 69 1019.1
20260509084008 58 225 0.9 1.7 0.00 0.00 0.00 69 1019.1
20260509083010 58 225 0.9 1.7 0.00 0.00 0.00 69 1019.1
20260509082009 58 225 0.9 1.7 0.00 0.00 0.00 69 1019.1
20260509081010 58 225 0.9 1.7 0.00 0.00 0.00 69 1019.1
20260509080012 58 45 1.7 4.3 0.00 0.00 0.00 68 1019.3
20260509075008 57 270 0.9 2.6 0.00 0.00 0.00 70 1019.4
20260509074008 56 180 0.9 2.6 0.00 0.00 0.00 70 1019.4
20260509071009 55 180 0.9 2.6 0.00 0.00 0.00 76 1019.4
20260509070013 53 0 1.7 3.5 0.00 0.00 0.00 77 1019.7
20260509065009 53 90 0.9 1.7 0.00 0.00 0.00 78 1019.6
20260509063009 52 0 0.9 2.6 0.00 0.00 0.00 80 1019.7
20260509062008 53 0 1.7 3.5 0.00 0.00 0.00 79 1019.5
20260509061012 52 180 0.9 1.7 0.00 0.00 0.00 79 1019.4
20260509054007 51 0 1.7 3.5 0.00 0.00 0.00 83 1019.3
20260509052009 48 0 0.9 2.6 0.00 0.00 0.00 91 1019.4
20260509050011 44 180 0.0 1.7 0.00 0.00 0.00 96 1019.5
20260509045008 43 45 0.0 0.9 0.00 0.00 0.00 97 1019.5
20260509044009 41 45 0.0 0.9 0.00 0.00 0.00 97 1019.6
20260509043009 40 45 0.0 0.9 0.00 0.00 0.00 97 1019.6
20260509042006 40 90 0.9 1.7 0.00 0.00 0.00 97 1019.7
20260509041008 39 45 0.0 0.9 0.00 0.00 0.00 97 1019.6
20260509040011 38 45 0.0 0.0 0.00 0.00 0.00 97 1019.8
20260509035006 38 45 0.0 0.0 0.00 0.00 0.00 96 1019.8
20260509034008 39 45 0.9 1.7 0.00 0.00 0.00 96 1019.7
20260509033010 38 90 0.9 1.7 0.00 0.00 0.00 96 1019.8
20260509032007 38 0 0.0 0.9 0.00 0.00 0.00 96 1019.8
20260509031007 38 180 0.9 1.7 0.00 0.00 0.00 96 1019.7
20260509025007 39 45 0.0 0.9 0.00 0.00 0.00 95 1019.6
20260509024008 39 45 0.0 0.9 0.00 0.00 0.00 95 1019.6
20260509023010 39 45 0.0 0.0 0.00 0.00 0.00 95 1019.6
20260509022008 40 45 0.0 0.9 0.00 0.00 0.00 95 1019.6
20260509021008 40 0 0.0 1.7 0.00 0.00 0.00 95 1019.6
20260509020011 41 0 0.0 0.9 0.00 0.00 0.00 95 1019.5
20260509014008 42 180 0.9 2.6 0.00 0.00 0.00 95 1019.4
20260509013010 42 270 0.9 2.6 0.00 0.00 0.00 94 1019.4
20260509012009 44 90 0.0 1.7 0.00 0.00 0.00 94 1019.1
20260509011007 44 0 0.0 1.7 0.00 0.00 0.00 94 1019.2
20260509010011 45 0 0.9 1.7 0.00 0.00 0.00 94 1019.1
20260509005009 45 90 0.0 0.9 0.00 0.00 0.00 94 1019.4
20260509004008 45 90 0.9 1.7 0.00 0.00 0.00 94 1019.4
20260509003009 44 135 0.0 0.9 0.00 0.00 0.00 94 1019.5
20260509002006 44 90 0.0 0.0 0.00 0.00 0.00 94 1019.6
20260509001008 44 90 0.0 0.0 0.00 0.00 0.00 94 1019.6
20260508234009 44 225 0.0 1.7 0.00 0.00 0.00 94 1019.8
20260508233009 44 45 0.0 0.9 0.00 0.00 0.00 93 1019.6
20260508232009 45 180 0.9 1.7 0.00 0.00 0.00 92 1019.7
20260508231008 45 45 0.0 1.7 0.00 0.00 0.00 92 1019.7
20260508230014 45 225 0.0 1.7 0.00 0.00 0.00 92 1019.7
20260508225009 46 135 0.0 0.9 0.00 0.00 0.00 91 1019.6
20260508224009 47 0 0.0 1.7 0.00 0.00 0.00 91 1019.5
20260508223010 47 45 0.9 2.6 0.00 0.00 0.00 91 1019.5
20260508222008 46 45 0.9 1.7 0.00 0.00 0.00 93 1019.5
20260508221006 46 45 0.0 1.7 0.00 0.00 0.00 94 1019.4
20260508220012 45 45 0.0 0.9 0.00 0.00 0.00 94 1019.6
20260508215007 44 45 0.0 0.9 0.00 0.00 0.00 94 1019.5
20260508214013 44 45 0.0 1.7 0.00 0.00 0.00 94 1019.6
20260508212006 43 180 0.0 0.9 0.00 0.00 0.00 93 1019.5
20260508211006 43 180 0.0 1.7 0.00 0.00 0.00 93 1019.6
20260508205009 43 45 0.0 0.9 0.00 0.00 0.00 92 1019.4
20260508204005 43 180 0.0 0.9 0.00 0.00 0.00 92 1019.3
20260508201011 45 45 0.0 0.9 0.00 0.00 0.00 89 1018.9
20260508200009 46 180 0.0 1.7 0.00 0.00 0.00 89 1018.9
20260508195006 47 180 0.0 0.9 0.00 0.00 0.00 88 1019.0
20260508194009 47 180 0.0 0.9 0.00 0.00 0.00 87 1018.7
20260508193007 48 45 0.0 0.9 0.00 0.00 0.00 85 1018.5
20260508192005 50 45 0.0 0.9 0.00 0.00 0.00 83 1018.4
20260508191008 51 0 0.9 3.5 0.00 0.00 0.00 81 1018.2
20260508190011 51 45 1.7 3.5 0.00 0.00 0.00 80 1017.9
20260508185008 52 45 2.6 5.2 0.00 0.00 0.00 78 1017.8
20260508184007 53 180 2.6 4.3 0.00 0.00 0.00 78 1017.7